When you browse on this site, cookies collect data to enhance your experience and personalize the content and advertising you see.
Visit our Privacy Policy to learn more. By continuing to use the site, you agree to this use of cookies and data.
  • In Deutschland
  • Länderverzeichnis
  • Für 7 Tage
  • Wassertemperatur
  • Satellitenkarten
  • Wetterkarte
  • Widgets
  • user-avatar
    Anmelden

    Stündliche Wetter Kolakow

    Heute, 20 Mai, Montag

    Zeit Temperatur Niederschläge Wind Luftdruck Luftfeuchtigkeit
    00:00 +17°C° 0 mm 3 m/S 748 mmHg 94%
    01:00 +16°C° 0 mm 3 m/S 747 mmHg 96%
    02:00 +16°C° 0.2 mm 3 m/S 747 mmHg 96%
    03:00 +16°C° 0.2 mm 3 m/S 747 mmHg 96%
    04:00 +16°C° 0.2 mm 3 m/S 747 mmHg 97%
    05:00 +17°C° 0 mm 4 m/S 747 mmHg 95%
    06:00 +17°C° 0 mm 5 m/S 746 mmHg 93%
    07:00 +19°C° 0 mm 5 m/S 746 mmHg 91%
    08:00 +19°C° 0.2 mm 5 m/S 746 mmHg 90%
    09:00 +20°C° 0.2 mm 5 m/S 746 mmHg 89%
    10:00 +20°C° 0.2 mm 5 m/S 746 mmHg 88%
    11:00 +22°C° 0 mm 5 m/S 746 mmHg 82%
    12:00 +25°C° 0 mm 5 m/S 746 mmHg 75%
    13:00 +26°C° 0 mm 5 m/S 746 mmHg 68%
    14:00 +25°C° 2.2 mm 5 m/S 746 mmHg 74%
    15:00 +22°C° 2.2 mm 4 m/S 746 mmHg 80%
    16:00 +21°C° 2.2 mm 4 m/S 745 mmHg 85%
    17:00 +20°C° 0.4 mm 4 m/S 745 mmHg 86%
    18:00 +20°C° 0.4 mm 4 m/S 745 mmHg 87%
    19:00 +19°C° 0.4 mm 3 m/S 745 mmHg 87%
    20:00 +19°C° 1.1 mm 3 m/S 745 mmHg 89%
    21:00 +18°C° 1.1 mm 3 m/S 745 mmHg 90%
    22:00 +17°C° 1.1 mm 3 m/S 745 mmHg 91%
    23:00 +17°C° 0.1 mm 3 m/S 745 mmHg 92%

    Morgen, 21 Mai, Dienstag

    Zeit Temperatur Niederschläge Wind Luftdruck Luftfeuchtigkeit
    00:00 +17°C° 0.1 mm 3 m/S 745 mmHg 94%
    01:00 +16°C° 0.1 mm 3 m/S 745 mmHg 95%
    02:00 +16°C° 0.1 mm 3 m/S 745 mmHg 95%
    03:00 +16°C° 0.1 mm 2 m/S 745 mmHg 96%
    04:00 +16°C° 0.1 mm 2 m/S 745 mmHg 96%
    05:00 +17°C° 0.3 mm 2 m/S 745 mmHg 94%
    06:00 +18°C° 0.3 mm 3 m/S 745 mmHg 93%
    07:00 +18°C° 0.3 mm 3 m/S 745 mmHg 91%
    08:00 +19°C° 0.2 mm 3 m/S 745 mmHg 88%
    09:00 +20°C° 0.2 mm 4 m/S 745 mmHg 85%
    10:00 +20°C° 0.2 mm 4 m/S 745 mmHg 83%
    11:00 +20°C° 0.7 mm 4 m/S 745 mmHg 82%
    12:00 +21°C° 0.7 mm 4 m/S 745 mmHg 81%
    13:00 +21°C° 0.7 mm 4 m/S 744 mmHg 80%
    14:00 +21°C° 0.7 mm 4 m/S 744 mmHg 79%
    15:00 +21°C° 0.7 mm 4 m/S 744 mmHg 79%
    16:00 +21°C° 0.7 mm 4 m/S 744 mmHg 78%
    17:00 +20°C° 0.3 mm 4 m/S 744 mmHg 81%
    18:00 +19°C° 0.3 mm 4 m/S 744 mmHg 84%
    19:00 +18°C° 0.3 mm 4 m/S 744 mmHg 87%
    20:00 +17°C° 0 mm 4 m/S 744 mmHg 89%
    21:00 +15°C° 0 mm 4 m/S 745 mmHg 92%
    22:00 +14°C° 0 mm 4 m/S 745 mmHg 94%
    23:00 +14°C° 0 mm 4 m/S 745 mmHg 93%

    übermorgen, 22 Mai, Mittwoch

    Zeit Temperatur Niederschläge Wind Luftdruck Luftfeuchtigkeit
    00:00 +14°C° 0 mm 4 m/S 745 mmHg 93%
    01:00 +14°C° 0 mm 4 m/S 745 mmHg 92%
    02:00 +14°C° 0 mm 4 m/S 745 mmHg 93%
    03:00 +13°C° 0 mm 3 m/S 745 mmHg 94%
    04:00 +13°C° 0 mm 3 m/S 745 mmHg 95%
    05:00 +14°C° 0 mm 3 m/S 746 mmHg 92%
    06:00 +15°C° 0 mm 4 m/S 746 mmHg 88%
    07:00 +17°C° 0 mm 4 m/S 746 mmHg 84%
    08:00 +18°C° 0.7 mm 4 m/S 746 mmHg 79%
    09:00 +19°C° 0.7 mm 4 m/S 746 mmHg 74%
    10:00 +20°C° 0.7 mm 4 m/S 746 mmHg 69%
    11:00 +21°C° 0.8 mm 4 m/S 746 mmHg 68%
    12:00 +21°C° 0.8 mm 4 m/S 746 mmHg 66%
    13:00 +22°C° 0.8 mm 4 m/S 746 mmHg 65%
    14:00 +22°C° 0.7 mm 4 m/S 746 mmHg 66%
    15:00 +22°C° 0.7 mm 3 m/S 745 mmHg 67%
    16:00 +22°C° 0.7 mm 3 m/S 745 mmHg 68%
    17:00 +20°C° 0.1 mm 3 m/S 745 mmHg 73%
    18:00 +19°C° 0.1 mm 3 m/S 745 mmHg 78%
    19:00 +18°C° 0.1 mm 2 m/S 745 mmHg 83%
    20:00 +17°C° 0 mm 2 m/S 746 mmHg 85%
    21:00 +16°C° 0 mm 2 m/S 746 mmHg 88%
    22:00 +15°C° 0 mm 2 m/S 746 mmHg 90%
    23:00 +14°C° 0 mm 2 m/S 746 mmHg 91%

    23 Mai, Donnerstag

    Zeit Temperatur Niederschläge Wind Luftdruck Luftfeuchtigkeit
    00:00 +14°C° 0 mm 2 m/S 746 mmHg 92%
    01:00 +13°C° 0 mm 1 m/S 746 mmHg 94%
    02:00 +13°C° 0 mm 1 m/S 747 mmHg 94%
    03:00 +13°C° 0 mm 1 m/S 747 mmHg 95%
    04:00 +13°C° 0 mm 1 m/S 747 mmHg 95%
    05:00 +14°C° 0 mm 1 m/S 747 mmHg 91%
    06:00 +16°C° 0 mm 2 m/S 748 mmHg 87%
    07:00 +17°C° 0 mm 2 m/S 748 mmHg 83%
    08:00 +18°C° 0.5 mm 2 m/S 748 mmHg 82%
    09:00 +18°C° 0.5 mm 3 m/S 749 mmHg 81%
    10:00 +19°C° 0.5 mm 3 m/S 749 mmHg 80%
    11:00 +17°C° 1.1 mm 5 m/S 749 mmHg 82%
    12:00 +17°C° 1.1 mm 6 m/S 749 mmHg 84%
    13:00 +16°C° 1.1 mm 7 m/S 750 mmHg 86%
    14:00 +16°C° 0.1 mm 7 m/S 750 mmHg 85%
    15:00 +15°C° 0.1 mm 7 m/S 750 mmHg 85%
    16:00 +14°C° 0.1 mm 7 m/S 750 mmHg 84%
    17:00 +14°C° 0 mm 6 m/S 750 mmHg 82%
    18:00 +13°C° 0 mm 6 m/S 751 mmHg 81%
    19:00 +12°C° 0 mm 5 m/S 751 mmHg 80%
    20:00 +12°C° 0 mm 5 m/S 751 mmHg 79%
    21:00 +10°C° 0 mm 5 m/S 751 mmHg 77%
    22:00 +9°C° 0 mm 5 m/S 752 mmHg 76%
    23:00 +10°C° 0 mm 4 m/S 752 mmHg 77%

    24 Mai, Freitag

    Zeit Temperatur Niederschläge Wind Luftdruck Luftfeuchtigkeit
    00:00 +10°C° 0 mm 4 m/S 752 mmHg 77%
    01:00 +8°C° 0 mm 4 m/S 752 mmHg 78%
    02:00 +9°C° 0 mm 3 m/S 752 mmHg 81%
    03:00 +9°C° 0 mm 3 m/S 752 mmHg 84%
    04:00 +8°C° 0 mm 3 m/S 752 mmHg 86%
    05:00 +9°C° 0 mm 3 m/S 752 mmHg 83%
    06:00 +10°C° 0 mm 3 m/S 752 mmHg 80%
    07:00 +12°C° 0 mm 3 m/S 751 mmHg 77%
    08:00 +13°C° 0 mm 3 m/S 751 mmHg 71%
    09:00 +16°C° 0 mm 3 m/S 751 mmHg 65%
    10:00 +18°C° 0 mm 3 m/S 751 mmHg 58%
    11:00 +19°C° 0 mm 3 m/S 751 mmHg 55%
    12:00 +19°C° 0 mm 3 m/S 750 mmHg 52%
    13:00 +20°C° 0 mm 3 m/S 750 mmHg 49%
    14:00 +20°C° 0 mm 3 m/S 750 mmHg 49%
    15:00 +20°C° 0 mm 3 m/S 749 mmHg 50%
    16:00 +20°C° 0 mm 2 m/S 749 mmHg 50%
    17:00 +19°C° 0 mm 2 m/S 749 mmHg 56%
    18:00 +18°C° 0 mm 2 m/S 748 mmHg 62%
    19:00 +16°C° 0 mm 2 m/S 748 mmHg 68%
    20:00 +15°C° 0 mm 2 m/S 748 mmHg 73%
    21:00 +14°C° 0 mm 2 m/S 748 mmHg 77%
    22:00 +13°C° 0 mm 2 m/S 748 mmHg 81%
    23:00 +12°C° 0 mm 2 m/S 748 mmHg 84%

    25 Mai, Samstag

    Zeit Temperatur Niederschläge Wind Luftdruck Luftfeuchtigkeit
    00:00 +12°C° 0 mm 2 m/S 748 mmHg 87%
    01:00 +10°C° 0 mm 2 m/S 748 mmHg 90%
    02:00 +10°C° 0 mm 2 m/S 748 mmHg 89%
    03:00 +9°C° 0 mm 2 m/S 748 mmHg 89%
    04:00 +9°C° 0 mm 2 m/S 748 mmHg 89%
    05:00 +12°C° 0 mm 2 m/S 748 mmHg 82%
    06:00 +14°C° 0 mm 1 m/S 748 mmHg 76%
    07:00 +15°C° 0 mm 1 m/S 748 mmHg 69%
    08:00 +18°C° 0 mm 1 m/S 748 mmHg 64%
    09:00 +19°C° 0 mm 1 m/S 748 mmHg 59%
    10:00 +20°C° 0 mm 2 m/S 748 mmHg 53%
    11:00 +20°C° 0 mm 2 m/S 748 mmHg 52%
    12:00 +20°C° 0 mm 2 m/S 748 mmHg 51%
    13:00 +21°C° 0 mm 2 m/S 748 mmHg 50%
    14:00 +21°C° 0 mm 2 m/S 748 mmHg 51%
    15:00 +21°C° 0 mm 2 m/S 747 mmHg 51%
    16:00 +21°C° 0 mm 2 m/S 747 mmHg 52%
    17:00 +20°C° 0 mm 2 m/S 747 mmHg 56%
    18:00 +19°C° 0 mm 2 m/S 747 mmHg 60%
    19:00 +18°C° 0 mm 1 m/S 748 mmHg 65%
    20:00 +16°C° 0 mm 1 m/S 748 mmHg 68%
    21:00 +15°C° 0 mm 1 m/S 748 mmHg 70%
    22:00 +14°C° 0 mm 1 m/S 748 mmHg 73%
    23:00 +14°C° 0 mm 1 m/S 748 mmHg 76%
    Mehr zeigen